[[{"header":{"parameterUnit":"m.s-1","parameterCategory":1,"la1":30.2991,"la2":30.254,"lo1":-89.0895,"lo2":-89.0444,"dy":0.0017,"dx":0.0017,"nx":28,"ny":28,"refTime":"2024-08-28T03:00:00:Z","depth":0,"parameterNumber":2,"parameterNumberName":"U-component_of_WINDS"},"data":[0,0,0,0,0,0,0,0,0,0,0,0,0,0,0,0,0,0,0,0,0,0,0,0,0,0,0,0,0,0,0,0,0,0,0,0,0,0,0,0,0,0,0,0,0,0,0,0,0,0,0,0,0,0,0,0,0,0,-2.8963,-2.8964,0,-2.8995,-2.8996,-2.8996,-2.8908,-2.8905,-2.8902,-2.8899,-2.8931,-2.8934,-2.8937,0,0,0,0,0,0,0,0,0,0,0,0,0,-2.8823,-2.8826,-2.8963,-2.8964,-2.8964,-2.8995,-2.8996,-2.8996,-2.8908,-2.8905,-2.8901,-2.8898,-2.893,-2.8934,-2.8938,0,0,0,0,0,0,0,0,0,0,0,0,0,-2.8873,-2.8827,-2.8963,-2.8924,-2.8921,-2.8995,-2.8996,-2.8996,-2.8909,-2.8905,-2.89,-2.8897,-2.8928,-2.8933,-2.8938,-2.9052,0,0,-2.8954,-2.8956,0,0,0,0,0,0,0,0,-2.887,-2.8878,-2.8929,-2.8927,-2.8923,-2.8943,-2.8958,-2.9015,-2.891,-2.8913,-2.8899,-2.8895,-2.8938,-2.8942,-2.8957,-2.9053,-2.9055,-2.8954,-2.8957,-2.896,-2.8961,0,0,0,0,0,0,0,-2.8867,-2.8876,-2.8976,-2.893,-2.8926,-2.8904,-2.8906,-2.8968,-2.8948,-2.8913,-2.8906,-2.8911,-2.8936,-2.8952,-2.8957,-2.9055,-2.8954,-2.8959,-2.8962,-2.8964,-2.9244,-2.9248,0,0,0,0,0,0,-2.8869,-2.8874,-2.8975,-2.8977,-2.8886,-2.891,-2.8912,-2.8941,-2.8947,-2.8944,-2.8915,-2.8907,-2.8946,-2.8951,-2.8958,-2.909,-2.8959,-2.8964,-2.8967,-2.924,-2.9245,-2.925,0,0,0,0,0,0,-2.8866,-2.8878,-2.8973,-2.8924,-2.8934,-2.8917,-2.8949,-2.8944,-2.896,-2.8949,-2.8945,-2.8936,-2.8943,-2.8951,-2.9029,-2.909,-2.8967,-2.8971,-2.9235,-2.9241,-2.9247,-2.9356,0,0,0,0,0,0,-2.8862,-2.8878,-2.8922,-2.8925,-2.8937,-2.9045,-2.8953,-2.8947,-2.897,-2.896,-2.8968,-2.8965,-2.894,-2.9022,-2.9034,-2.9095,-2.8975,-2.9229,-2.9238,-2.9245,-2.9347,-2.9365,-2.9381,0,0,0,0,0,-2.8858,-2.8951,-2.8924,-2.8937,-2.8991,-2.9049,-2.9055,-2.9025,-2.8975,-2.9018,-2.901,-2.8965,-2.9082,-2.9031,-2.9043,-2.9107,-2.9225,-2.9235,-2.9245,-2.9339,-2.9362,-2.9381,0,0,0,0,0,0,-2.8954,-2.8951,-2.8921,-2.9018,-2.9035,-2.9034,-2.9087,-2.9051,-2.9081,-2.907,-2.9032,-2.9034,-2.9119,-2.9121,-2.9064,-2.9216,-2.9144,-2.9157,-2.9212,-2.9233,-2.925,-2.9247,-2.8979,0,0,0,0,0,-2.8987,-2.9035,-2.9029,-2.9115,-2.9125,-2.9105,-2.9129,-2.9104,-2.9119,-2.9125,-2.9124,-2.9139,-2.9179,-2.9206,-2.9243,-2.9347,-2.9346,-2.9397,-2.9414,-2.9428,-2.9439,-2.9493,-2.9515,-2.9282,-2.9282,-2.9282,0,0,-2.9055,-2.9059,-2.9091,-2.9135,-2.9144,-2.9193,-2.9111,-2.9167,-2.9203,-2.9134,-2.9207,-2.9207,-2.9221,-2.9313,-2.9353,-2.9316,-2.9504,-2.9441,-2.9452,-2.9456,-2.9505,-2.9527,-2.9547,-2.9289,-2.9288,-2.9287,0,0,-2.9204,-2.9212,-2.9285,-2.9296,-2.9312,-2.9298,-2.9315,-2.932,-2.9317,-2.939,-2.9339,-2.938,-2.9451,-2.9463,-2.9478,-2.9631,-2.9589,-2.9644,-2.9734,-2.9787,-2.9805,-2.9821,-2.9874,-2.9894,-2.9656,-2.9656,-2.9656,0,-2.9286,-2.9359,-2.9326,-2.9385,-2.9405,-2.9346,-2.9418,-2.943,-2.9457,-2.9471,-2.9431,-2.9517,-2.9523,-2.9615,-2.9653,-2.9668,-2.9685,-2.9642,-2.9805,-2.9821,-2.9835,-2.9885,-2.9906,-2.9662,-2.9662,-2.9661,-2.966,0,-2.9459,-2.951,-2.9566,-2.9594,-2.962,-2.9686,-2.9662,-2.9692,-2.9666,-2.9656,-2.973,-2.9735,-2.9771,-2.9791,-2.9766,-2.988,-2.9857,-2.9812,-2.9739,-2.9864,-2.9911,-2.993,-2.9672,-2.9669,-2.9667,-2.9666,0,0,-2.9669,-2.9677,-2.9698,-2.9709,-2.9722,-2.9761,-2.9823,-2.9858,-2.9884,-2.9905,-2.9955,-3.0016,-2.9973,-2.9991,-2.9967,-3.0013,-3.0132,-2.9961,-2.9961,-2.9992,-3.0257,-3.029,-3.0313,-3.0105,-3.0109,-3.0112,-3.0255,0,-2.9814,-2.9921,-2.9893,-3.0,-3.0046,-2.999,-3.0044,-3.0057,-3.0049,-3.0087,-3.0078,-3.0121,-3.0063,-3.0073,-3.0116,-3.0109,-3.0184,-3.0098,-3.015,-3.0153,-3.0147,-3.0337,-3.0372,-3.0507,-3.0273,-3.0276,-3.0278,0,-2.9998,-3.0026,-3.0137,-3.0141,-3.0159,-3.0209,-3.0238,-3.0275,-3.0288,-3.0279,-3.0299,-3.0265,-3.0325,-3.0253,-3.0335,-3.0276,-3.0296,-3.0295,-3.03,-3.0302,-3.0222,-3.0343,-3.055,-3.0569,-3.0307,-3.0304,-3.0302,0,-3.0139,-3.0204,-3.0278,-3.0289,-3.0297,-3.0332,-3.0337,-3.0346,-3.0369,-3.0394,-3.0408,-3.0441,-3.0458,-3.0484,-3.0459,-3.0409,-3.0544,-3.047,-3.0537,-3.0538,-3.0567,-3.0565,-3.0778,-3.0583,-3.0582,-3.0582,-3.0581,0,-3.0303,-3.0373,-3.0341,-3.0387,-3.0463,-3.043,-3.0506,-3.0503,-3.0512,-3.0556,-3.0509,-3.0551,-3.0516,-3.0555,-3.0536,-3.0605,-3.0614,-3.0607,-3.0601,-3.0611,-3.0612,-3.0622,-3.0612,-3.0587,-3.0586,-3.0585,-3.0584,0,-3.0472,-3.0454,-3.0531,-3.0531,-3.0533,-3.0589,-3.0589,-3.063,-3.0619,-3.0675,-3.0686,-3.0669,-3.0712,-3.0689,-3.0734,-3.0721,-3.0811,-3.0793,-3.0806,-3.0801,-3.0868,-3.0862,-3.1094,-3.1122,-3.0911,-3.0913,-3.0914,0,-3.0578,-3.063,-3.0636,-3.0662,-3.067,-3.0712,-3.0735,-3.0704,-3.073,-3.0749,-3.0788,-3.0827,-3.0856,-3.0927,-3.0917,-3.0951,-3.0932,-3.1011,-3.0937,-3.0944,-3.0931,-3.0928,-3.0932,-3.1026,-3.1028,-3.103,-3.1032,0,-3.0766,-3.0755,-3.0789,-3.0821,-3.085,-3.0873,-3.0893,-3.0917,-3.0886,-3.0917,-3.096,-3.0983,-3.1028,-3.1066,-3.1095,-3.1099,-3.106,-3.1056,-3.1073,-3.1082,-3.1087,-3.1084,-3.0845,-3.105,-3.1048,-3.1047,-3.1046,-3.1045,-3.0906,-3.0949,-3.096,-3.1,-3.1011,-3.1031,-3.1069,-3.1063,-3.1099,-3.1133,-3.1113,-3.1163,-3.1174,-3.1209,-3.1217,-3.1255,-3.1224,-3.1249,-3.1255,-3.1261,-3.1269,-3.1083,-3.1261,-3.126,-3.126,-3.1259,-3.1259,0,-3.1091,-3.1095,-3.1132,-3.1161,-3.1192,-3.1154,-3.1173,-3.1202,-3.1247,-3.126,-3.129,-3.1339,-3.1376,-3.137,-3.1403,-3.1435,-3.1418,-3.1445,-3.1441,-3.1442,-3.1297,-3.1278,-3.1458,-3.1458,-3.1458,-3.1458,-3.1458,-3.1458,-3.119,-3.1261,-3.1251,-3.1326,-3.1329,-3.1379,-3.1393,-3.141,-3.142,-3.1477,-3.1508,-3.1504,-3.1509,-3.1542,-3.1574,-3.1571,-3.1585,-3.1618,-3.1609,-3.1472,-3.1453,-3.1434,-3.1416,-3.1622,-3.1622,-3.1751,-3.1752,-3.1753]},{"header":{"parameterUnit":"m.s-1","parameterCategory":1,"la1":30.2991,"la2":30.254,"lo1":-89.0895,"lo2":-89.0444,"dy":0.0017,"dx":0.0017,"nx":28,"ny":28,"refTime":"2024-08-28T03:00:00:Z","depth":0,"parameterNumber":3,"parameterNumberName":"V-component_of_WINDS"},"data":[0,0,0,0,0,0,0,0,0,0,0,0,0,0,0,0,0,0,0,0,0,0,0,0,0,0,0,0,0,0,0,0,0,0,0,0,0,0,0,0,0,0,0,0,0,0,0,0,0,0,0,0,0,0,0,0,0,0,-0.4273,-0.4273,0,-0.4268,-0.4268,-0.4268,-0.4294,-0.4295,-0.4296,-0.4296,-0.4289,-0.4288,-0.4287,0,0,0,0,0,0,0,0,0,0,0,0,0,-0.4304,-0.4303,-0.4273,-0.4273,-0.4273,-0.4268,-0.4268,-0.4268,-0.4294,-0.4295,-0.4296,-0.4297,-0.4289,-0.4288,-0.4287,0,0,0,0,0,0,0,0,0,0,0,0,0,-0.4294,-0.4303,-0.4273,-0.4286,-0.4287,-0.4268,-0.4268,-0.4268,-0.4294,-0.4295,-0.4296,-0.4297,-0.4289,-0.4288,-0.4287,-0.4255,0,0,-0.4283,-0.4282,0,0,0,0,0,0,0,0,-0.4294,-0.4293,-0.4284,-0.4285,-0.4286,-0.4283,-0.4276,-0.4263,-0.4293,-0.4291,-0.4296,-0.4298,-0.4286,-0.4285,-0.4281,-0.4255,-0.4254,-0.4282,-0.4282,-0.4281,-0.4281,0,0,0,0,0,0,0,-0.4295,-0.4293,-0.4271,-0.4284,-0.4285,-0.4291,-0.429,-0.4274,-0.4282,-0.4291,-0.4293,-0.4292,-0.4287,-0.4282,-0.4281,-0.4254,-0.4282,-0.4281,-0.428,-0.428,-0.42,-0.4199,0,0,0,0,0,0,-0.4294,-0.4293,-0.4271,-0.4271,-0.4293,-0.4289,-0.4289,-0.4283,-0.4282,-0.4283,-0.4291,-0.4294,-0.4284,-0.4283,-0.4281,-0.4243,-0.4281,-0.428,-0.4279,-0.4201,-0.4199,-0.4198,0,0,0,0,0,0,-0.4295,-0.4292,-0.4272,-0.4283,-0.428,-0.4287,-0.428,-0.4282,-0.4278,-0.4282,-0.4284,-0.4286,-0.4285,-0.4283,-0.4261,-0.4243,-0.4279,-0.4278,-0.4203,-0.4201,-0.4199,-0.4167,0,0,0,0,0,0,-0.4296,-0.4292,-0.4281,-0.4282,-0.428,-0.4253,-0.4279,-0.4281,-0.4276,-0.4279,-0.4277,-0.4278,-0.4286,-0.4263,-0.426,-0.4242,-0.4277,-0.4204,-0.4202,-0.4199,-0.417,-0.4164,-0.4159,0,0,0,0,0,-0.4297,-0.4272,-0.428,-0.4278,-0.4266,-0.4251,-0.425,-0.426,-0.4274,-0.4262,-0.4265,-0.4278,-0.4245,-0.4261,-0.4257,-0.4238,-0.4205,-0.4202,-0.42,-0.4172,-0.4165,-0.4159,0,0,0,0,0,0,-0.4268,-0.4273,-0.4282,-0.4257,-0.4254,-0.4256,-0.4242,-0.4253,-0.4245,-0.4248,-0.4259,-0.4259,-0.4234,-0.4234,-0.4251,-0.4207,-0.4228,-0.4224,-0.4208,-0.4202,-0.4197,-0.4197,-0.4276,0,0,0,0,0,-0.4259,-0.4248,-0.4252,-0.423,-0.4228,-0.4235,-0.4229,-0.4236,-0.4233,-0.4232,-0.4233,-0.4228,-0.4217,-0.4209,-0.4199,-0.417,-0.4169,-0.4155,-0.415,-0.4145,-0.4142,-0.4125,-0.4118,-0.4188,-0.4188,-0.4189,0,0,-0.4241,-0.4241,-0.4234,-0.4224,-0.4222,-0.4209,-0.4233,-0.4219,-0.4209,-0.4229,-0.4209,-0.4209,-0.4205,-0.4179,-0.4167,-0.4178,-0.4122,-0.4142,-0.4138,-0.4137,-0.4121,-0.4114,-0.4108,-0.4186,-0.4187,-0.4187,0,0,-0.4199,-0.4199,-0.418,-0.4178,-0.4175,-0.418,-0.4175,-0.4175,-0.4176,-0.4156,-0.417,-0.4158,-0.4139,-0.4135,-0.413,-0.4085,-0.4097,-0.4082,-0.4055,-0.4038,-0.4032,-0.4027,-0.401,-0.4004,-0.4078,-0.4078,-0.4078,0,-0.4176,-0.4158,-0.4169,-0.4153,-0.4148,-0.4166,-0.4146,-0.4143,-0.4136,-0.4132,-0.4144,-0.4119,-0.4117,-0.409,-0.4079,-0.4075,-0.4068,-0.4082,-0.4032,-0.4028,-0.4023,-0.4007,-0.4001,-0.4076,-0.4076,-0.4077,-0.4077,0,-0.4129,-0.4116,-0.41,-0.4094,-0.4087,-0.4069,-0.4076,-0.4068,-0.4075,-0.4078,-0.4056,-0.4055,-0.4044,-0.4038,-0.4046,-0.4011,-0.4017,-0.4031,-0.4052,-0.4014,-0.3999,-0.3993,-0.4074,-0.4074,-0.4075,-0.4075,0,0,-0.4071,-0.407,-0.4064,-0.406,-0.4058,-0.4047,-0.4029,-0.4019,-0.4011,-0.4005,-0.399,-0.3972,-0.3984,-0.3979,-0.3986,-0.3971,-0.3934,-0.3986,-0.3986,-0.3975,-0.3894,-0.3883,-0.3876,-0.3941,-0.394,-0.3939,-0.3894,0,-0.403,-0.4,-0.4009,-0.3978,-0.3965,-0.3981,-0.3966,-0.3961,-0.3963,-0.3952,-0.3953,-0.394,-0.3958,-0.3954,-0.394,-0.3941,-0.3917,-0.3945,-0.3926,-0.3925,-0.3926,-0.3868,-0.3858,-0.3815,-0.3888,-0.3887,-0.3886,0,-0.3978,-0.3971,-0.3939,-0.3937,-0.3932,-0.3918,-0.3908,-0.3897,-0.3892,-0.3895,-0.3888,-0.3897,-0.3878,-0.39,-0.3873,-0.3891,-0.3883,-0.3882,-0.3881,-0.3879,-0.3903,-0.3864,-0.3802,-0.3795,-0.3877,-0.3878,-0.3879,0,-0.3938,-0.392,-0.3898,-0.3895,-0.3892,-0.3882,-0.388,-0.3876,-0.3869,-0.386,-0.3855,-0.3844,-0.3838,-0.3828,-0.3834,-0.3849,-0.3805,-0.3828,-0.3806,-0.3805,-0.3796,-0.3796,-0.373,-0.3792,-0.3792,-0.3792,-0.3792,0,-0.3891,-0.3871,-0.388,-0.3866,-0.3844,-0.3853,-0.383,-0.383,-0.3826,-0.3812,-0.3825,-0.3811,-0.382,-0.3806,-0.381,-0.3787,-0.3784,-0.3784,-0.3785,-0.3783,-0.3783,-0.3778,-0.3781,-0.379,-0.3791,-0.3791,-0.3791,0,-0.3842,-0.3848,-0.3825,-0.3824,-0.3823,-0.3806,-0.3805,-0.3792,-0.3794,-0.3776,-0.3772,-0.3776,-0.376,-0.3765,-0.3748,-0.3751,-0.3721,-0.3726,-0.3722,-0.3723,-0.3701,-0.3703,-0.3629,-0.3619,-0.3688,-0.3687,-0.3687,0,-0.3812,-0.3797,-0.3794,-0.3786,-0.3783,-0.377,-0.3762,-0.377,-0.3762,-0.3754,-0.3741,-0.3727,-0.3716,-0.369,-0.3691,-0.3678,-0.3682,-0.3657,-0.368,-0.3678,-0.3681,-0.3681,-0.3679,-0.3653,-0.3652,-0.3651,-0.3651,0,-0.3757,-0.376,-0.3749,-0.3739,-0.3729,-0.3721,-0.3714,-0.3706,-0.3714,-0.3703,-0.3688,-0.3679,-0.3662,-0.3647,-0.3635,-0.3632,-0.3642,-0.3643,-0.3637,-0.3634,-0.3633,-0.3632,-0.3709,-0.3645,-0.3646,-0.3646,-0.3646,-0.3647,-0.3716,-0.3703,-0.3699,-0.3685,-0.3681,-0.3674,-0.3661,-0.3661,-0.3649,-0.3636,-0.3641,-0.3622,-0.3616,-0.3601,-0.3596,-0.3581,-0.359,-0.3582,-0.358,-0.3577,-0.3574,-0.3635,-0.3579,-0.3579,-0.3579,-0.3579,-0.3579,0,-0.3661,-0.3659,-0.3647,-0.3637,-0.3626,-0.3636,-0.3629,-0.3619,-0.3603,-0.3596,-0.3585,-0.3566,-0.3551,-0.355,-0.3536,-0.3524,-0.3528,-0.352,-0.352,-0.3519,-0.3567,-0.3573,-0.3517,-0.3517,-0.3517,-0.3517,-0.3517,-0.3517,-0.3632,-0.3609,-0.3611,-0.3586,-0.3584,-0.3566,-0.3561,-0.3553,-0.3548,-0.3527,-0.3515,-0.3514,-0.3509,-0.3494,-0.348,-0.348,-0.3474,-0.3464,-0.3465,-0.351,-0.3516,-0.3522,-0.3528,-0.3463,-0.3463,-0.3419,-0.3418,-0.3418]}]]